Weather History for Kamloops, BC

Change the Weather History Date:

Tuesday, October 2, 2012

  Actual Average Record
Temperature  
Mean Temperature 57 °F -  
Max Temperature 67 °F 62 °F 77 °F (2003)
Min Temperature 47 °F 41 °F 31 °F (2013)
Degree Days  
Heating Degree Days 8    
Growing Degree Days 7 (Base 50)    
Moisture  
Dew Point 25 °F    
Average Humidity 34    
Maximum Humidity 50    
Minimum Humidity 15    
Precipitation  
Precipitation 0.00 in - - ()
Sea Level Pressure  
Sea Level Pressure 30.24 in    
Wind  
Wind Speed 14 mph ()    
Max Wind Speed 28 mph    
Max Gust Speed 33 mph    
Averages and records for this station are not official NWS values.
T = Trace of Precipitation, MM = Missing Value Source: Averaged Metar Reports

Daily Weather History Graph

Daily Weather History Graph

Search for Another Location

Airport:

Trip Planner

Search our weather history database for the weather conditions in past years. The results will help you decide how hot, cold, wet, or windy it might be!

Date:

Astronomy

Oct. 02, 2012 Rise Set
Actual Time 7:04 AM PDT 6:36 PM PDT
Civil Twilight 6:31 AM PDT 7:08 PM PDT
Nautical Twilight 5:53 AM PDT 7:46 PM PDT
Astronomical Twilight 5:14 AM PDT 8:25 PM PDT
Moon 7:28 PM PDT (10/2) 9:58 AM PDT (10/2)
Length of Visible Light 12h 36m
Length of Day
11h 31m
Waning Gibbous, 93% of the Moon is Illuminated
Oct 2
Waning Gibbous
Oct 8
Last Quarter
Oct 15
New
Oct 21
First Quarter
Oct 29
Full

Hourly Weather History & Observations

Time (PDT) Temp. Dew Point Humidity Pressure Visibility Wind Dir Wind Speed Gust Speed Precip Events Conditions
12:00 AM 64.4 °F 32.0 °F 30% 29.96 in 40.0 mi WNW 19.6 mph - N/A   Scattered Clouds
1:00 AM 59.0 °F 33.8 °F 39% 29.98 in 40.0 mi WNW 9.2 mph - N/A   Scattered Clouds
2:00 AM 57.2 °F 33.8 °F 41% 30.00 in 40.0 mi NW 3.5 mph - N/A   Partly Cloudy
4:00 AM 57.2 °F 23.0 °F 27% 30.05 in 40.0 mi NW 11.5 mph 19.6 mph N/A   Clear
5:00 AM 55.4 °F 21.2 °F 26% 30.08 in 40.0 mi WNW 19.6 mph 27.6 mph N/A   Partly Cloudy
6:00 AM 53.6 °F 24.8 °F 33% 30.11 in 40.0 mi NW 17.3 mph 28.8 mph N/A   Mostly Cloudy
7:00 AM 51.8 °F 23.0 °F 33% 30.13 in 40.0 mi NNW 16.1 mph 23.0 mph N/A   Mostly Cloudy
8:00 AM 51.8 °F 23.0 °F 33% 30.19 in 40.0 mi WNW 17.3 mph 27.6 mph N/A   Mostly Cloudy
9:00 AM 50.0 °F 21.2 °F 32% 30.21 in 40.0 mi NW 9.2 mph 21.9 mph N/A   Mostly Cloudy
10:00 AM 51.8 °F 21.2 °F 30% 30.23 in 40.0 mi NW 17.3 mph - N/A   Mostly Cloudy
11:00 AM 54 °F 20 °F 15% 30.23 in 37 mi NW 16.1 mph - -   Scattered Clouds
11:00 AM 55.4 °F 19.4 °F 25% 30.23 in 40.0 mi NW 20.7 mph 27.6 mph N/A   Partly Cloudy
12:00 PM 53.6 °F 19.4 °F 26% 30.25 in 40.0 mi NNW 24.2 mph 33.4 mph N/A   Mostly Cloudy
1:00 PM 55.4 °F 21.2 °F 26% 30.24 in 40.0 mi NW 20.7 mph - N/A   Mostly Cloudy
2:00 PM 53.6 °F 24.8 °F 33% 30.27 in 40.0 mi NW 27.6 mph - N/A   Mostly Cloudy
3:00 PM 53.6 °F 24.8 °F 33% 30.30 in 40.0 mi NW 21.9 mph 32.2 mph N/A   Scattered Clouds
4:00 PM 50.0 °F 26.6 °F 40% 30.31 in 40.0 mi WNW 18.4 mph 25.3 mph N/A   Scattered Clouds
5:00 PM 51 °F 26 °F 24% 30.35 in 37 mi NW 18.4 mph - -   Mostly Cloudy
5:00 PM 51.8 °F 24.8 °F 35% 30.35 in 40.0 mi NW 18.4 mph - N/A   Mostly Cloudy
6:00 PM 50.0 °F 26.6 °F 40% 30.36 in 40.0 mi WNW 16.1 mph 21.9 mph N/A   Scattered Clouds
7:00 PM 48.2 °F 26.6 °F 43% 30.36 in 40.0 mi WNW 15.0 mph 20.7 mph N/A   Partly Cloudy
8:00 PM 48.2 °F 26.6 °F 43% 30.38 in 40.0 mi WNW 15.0 mph 20.7 mph N/A   Partly Cloudy
9:00 PM 48.2 °F 28.4 °F 46% 30.40 in 40.0 mi West 18.4 mph 25.3 mph N/A   Partly Cloudy
10:00 PM 48.2 °F 28.4 °F 46% 30.43 in 40.0 mi West 13.8 mph 19.6 mph N/A   Partly Cloudy
11:00 PM 47 °F 29 °F 38% 30.45 in 37 mi West 6.9 mph - -   Scattered Clouds
11:00 PM 48.2 °F 30.2 °F 50% 30.45 in 40.0 mi West 6.9 mph - N/A   Partly Cloudy